Weather History for Istanbul, Turkey

Change the Weather History Date:

Friday, September 13, 2013

  Actual Average Record
Temperature  
Mean Temperature 77 °F -  
Max Temperature 85 °F 71 °F 85 °F (2013)
Min Temperature 69 °F 58 °F 53 °F (2004)
Cooling Degree Days 12    
Growing Degree Days 27 (Base 50)    
Moisture  
Dew Point 64 °F    
Average Humidity 62    
Maximum Humidity 78    
Minimum Humidity 45    
Precipitation  
Precipitation 0.00 in - - ()
Sea Level Pressure  
Sea Level Pressure 29.89 in    
Wind  
Wind Speed 5 mph ()    
Max Wind Speed 14 mph    
Max Gust Speed -    
Visibility 6.2 miles    
Events      
Averages and records for this station are not official NWS values.
T = Trace of Precipitation, MM = Missing Value Source: Averaged Metar Reports

Daily Weather History Graph

Daily Weather History Graph

Search for Another Location

Airport:

Trip Planner

Search our weather history database for the weather conditions in past years. The results will help you decide how hot, cold, wet, or windy it might be!

Date:

Astronomy

Sep. 13, 2013 Rise Set
Actual Time 6:43 AM EEST 7:17 PM EEST
Civil Twilight 6:15 AM EEST 7:44 PM EEST
Nautical Twilight 5:42 AM EEST 8:17 PM EEST
Astronomical Twilight 5:09 AM EEST 8:51 PM EEST
Moon 2:51 PM EEST (9/13) No Moon Set
Length of Visible Light 13h 29m
Length of Day
12h 34m
First Quarter, 58% of the Moon is Illuminated
Sep 13
First Quarter
Sep 19
Full
Sep 27
Last Quarter
Oct 5
New
Oct 12
First Quarter

Hourly Weather History & Observations

Time (EEST) Temp. Heat Index Dew Point Humidity Pressure Visibility Wind Dir Wind Speed Gust Speed Precip Events Conditions
12:20 AM 77.0 °F - 57.2 °F 50% 29.89 in - ESE 3.5 mph - N/A   Clear
12:50 AM 75.2 °F - 59.0 °F 57% 29.89 in - ESE 4.6 mph - N/A   Clear
1:20 AM 77.0 °F - 62.6 °F 61% 29.89 in - Variable 6.9 mph - N/A   Clear
1:50 AM 73.4 °F - 62.6 °F 69% 29.89 in - East 4.6 mph - N/A   Clear
2:20 AM 73.4 °F - 62.6 °F 69% 29.89 in - East 5.8 mph - N/A   Clear
2:50 AM 73.4 °F - 62.6 °F 69% 29.86 in - Variable 2.3 mph - N/A   Clear
3:00 AM 73 °F - 62 °F 61% 29.88 in 6 mi ESE 2.3 mph - -  
3:20 AM 71.6 °F - 62.6 °F 73% 29.89 in - Calm Calm - N/A   Clear
3:50 AM 71.6 °F - 62.6 °F 73% 29.86 in - SSE 4.6 mph - N/A   Clear
4:20 AM 73.4 °F - 64.4 °F 73% 29.86 in - SE 4.6 mph - N/A   Clear
4:50 AM 71.6 °F - 62.6 °F 73% 29.86 in - SSE 1.2 mph - N/A   Clear
5:20 AM 71.6 °F - 64.4 °F 78% 29.86 in - Variable 2.3 mph - N/A   Clear
5:50 AM 69.8 °F - 62.6 °F 78% 29.86 in - Variable 2.3 mph - N/A   Clear
6:20 AM 73.4 °F - 62.6 °F 69% 29.86 in 6.2 mi SW 3.5 mph - N/A   Scattered Clouds
6:50 AM 73.4 °F - 62.6 °F 69% 29.86 in 6.2 mi South 3.5 mph - N/A   Scattered Clouds
7:20 AM 73.4 °F - 64.4 °F 73% 29.86 in 6.2 mi SSE 4.6 mph - N/A   Partly Cloudy
7:50 AM 75.2 °F - 64.4 °F 69% 29.89 in 6.2 mi Variable 2.3 mph - N/A   Partly Cloudy
8:20 AM 77.0 °F - 62.6 °F 61% 29.89 in 6.2 mi SSW 5.8 mph - N/A   Partly Cloudy
8:50 AM 78.8 °F - 62.6 °F 57% 29.89 in 6.2 mi SSW 6.9 mph - N/A   Partly Cloudy
9:00 AM 78 °F - 62 °F 48% 29.88 in 6 mi SSW 6.9 mph - -   Scattered Clouds
9:20 AM 78.8 °F - 62.6 °F 57% 29.89 in 6.2 mi SW 8.1 mph - N/A   Partly Cloudy
9:50 AM 78.8 °F - 60.8 °F 54% 29.89 in 6.2 mi SW 8.1 mph - N/A   Partly Cloudy
10:20 AM 78.8 °F - 62.6 °F 57% 29.89 in 6.2 mi SW 9.2 mph - N/A   Partly Cloudy
10:50 AM 80.6 °F 82.3 °F 64.4 °F 58% 29.92 in 6.2 mi SW 8.1 mph - N/A   Partly Cloudy
11:20 AM 80.6 °F 82.7 °F 66.2 °F 61% 29.92 in 6.2 mi SW 8.1 mph - N/A   Partly Cloudy
11:50 AM 78.8 °F - 64.4 °F 61% 29.92 in 6.2 mi SW 11.5 mph - N/A   Partly Cloudy
12:20 PM 80.6 °F 82.7 °F 66.2 °F 61% 29.92 in 6.2 mi SW 11.5 mph - N/A   Partly Cloudy
12:50 PM 80.6 °F 82.7 °F 66.2 °F 61% 29.92 in 6.2 mi WSW 10.4 mph - N/A   Scattered Clouds
1:20 PM 80.6 °F 82.7 °F 66.2 °F 61% 29.92 in 6.2 mi WSW 9.2 mph - N/A   Scattered Clouds
1:50 PM 80.6 °F 83.2 °F 68.0 °F 65% 29.92 in 6.2 mi WSW 10.4 mph - N/A   Scattered Clouds
2:20 PM 80.6 °F 83.2 °F 68.0 °F 65% 29.92 in 6.2 mi SW 10.4 mph - N/A   Scattered Clouds
2:50 PM 80.6 °F 82.7 °F 66.2 °F 61% 29.92 in 6.2 mi WSW 13.8 mph - N/A   Scattered Clouds
3:00 PM 80 °F - 67 °F 55% 29.91 in 6 mi WSW 13.8 mph - -   Scattered Clouds
3:20 PM 80.6 °F 82.7 °F 66.2 °F 61% 29.92 in 6.2 mi SW 9.2 mph - N/A   Scattered Clouds
3:50 PM 84.2 °F 86.6 °F 66.2 °F 55% 29.92 in 6.2 mi SW 8.1 mph - N/A   Scattered Clouds
4:20 PM 82.4 °F 83.4 °F 62.6 °F 51% 29.89 in 6.2 mi West 6.9 mph - N/A   Scattered Clouds
4:50 PM 84.2 °F 84.4 °F 60.8 °F 45% 29.89 in 6.2 mi WSW 6.9 mph - N/A   Partly Cloudy
5:20 PM 84.2 °F 84.4 °F 60.8 °F 45% 29.89 in 6.2 mi SW 6.9 mph - N/A   Partly Cloudy
5:50 PM 82.4 °F 83.9 °F 64.4 °F 54% 29.89 in 6.2 mi SSW 5.8 mph - N/A   Partly Cloudy
6:20 PM 80.6 °F 81.8 °F 62.6 °F 54% 29.89 in 6.2 mi SW 4.6 mph - N/A   Partly Cloudy
6:50 PM 80.6 °F 81.5 °F 60.8 °F 51% 29.89 in 6.2 mi Variable 2.3 mph - N/A   Partly Cloudy
7:20 PM 80.6 °F 81.1 °F 59.0 °F 48% 29.89 in 6.2 mi South 4.6 mph - N/A   Partly Cloudy
7:50 PM 78.8 °F - 64.4 °F 61% 29.89 in 6.2 mi SSE 5.8 mph - N/A   Partly Cloudy
8:20 PM 78.8 °F - 64.4 °F 61% 29.89 in 6.2 mi ESE 4.6 mph - N/A   Partly Cloudy
8:50 PM 78.8 °F - 64.4 °F 61% 29.89 in 6.2 mi Variable 5.8 mph - N/A   Partly Cloudy
9:00 PM 79 °F - 64 °F 52% 29.90 in 6 mi ESE 5.8 mph - -   Scattered Clouds
9:20 PM 77.0 °F - 66.2 °F 69% 29.89 in 6.2 mi East 5.8 mph - N/A   Scattered Clouds
9:50 PM 77.0 °F - 64.4 °F 65% 29.89 in 6.2 mi East 4.6 mph - N/A   Scattered Clouds
10:20 PM 77.0 °F - 64.4 °F 65% 29.89 in 6.2 mi ESE 4.6 mph - N/A   Scattered Clouds
10:50 PM 75.2 °F - 62.6 °F 65% 29.89 in 6.2 mi Variable 2.3 mph - N/A   Scattered Clouds
11:20 PM 77.0 °F - 64.4 °F 65% 29.86 in 6.2 mi SSE 8.1 mph - N/A   Scattered Clouds
11:50 PM 75.2 °F - 66.2 °F 73% 29.86 in 6.2 mi SE 4.6 mph - N/A   Scattered Clouds